Weather History for Syracuse, NY

Change the Weather History Date:

Friday, November 15, 2013

  Actual Average Record
Temperature  
Mean Temperature 47 °F 41 °F  
Max Temperature 56 °F 49 °F 73 °F (1956)
Min Temperature 37 °F 33 °F 12 °F (1933)
Degree Days  
Heating Degree Days 18 24  
Month to date heating degree days 337 326  
Since 1 July heating degree days 859 943  
Cooling Degree Days 0 0  
Month to date cooling degree days 0 0  
Year to date cooling degree days 712 569  
Moisture  
Dew Point 20 °F    
Average Humidity 37    
Maximum Humidity 49    
Minimum Humidity 24    
Precipitation  
Precipitation 0.00 in 0.12 in 1.47 in (1973)
Month to date precipitation 1.53 1.75  
Year to date precipitation 35.22 33.47  
Snow  
Snow 0.00 in 0.30 in 3.00 in (1995)
Month to date snowfall 0.4 2.8  
Since 1 July snowfall 0.4 3.2  
Since 1 September snowfall 0.4 3.2  
Snow Depth 0.00 in    
Sea Level Pressure  
Sea Level Pressure 30.11 in    
Wind  
Wind Speed 5 mph (South)    
Max Wind Speed 14 mph    
Max Gust Speed 18 mph    
Visibility 10 miles    
Events      
T = Trace of Precipitation, MM = Missing Value Source: NWS Daily Summary

Daily Weather History Graph

Daily Weather History Graph

Search for Another Location

Airport:

Trip Planner

Search our weather history database for the weather conditions in past years. The results will help you decide how hot, cold, wet, or windy it might be!

Date:

Astronomy

Nov. 15, 2013 Rise Set
Actual Time 6:57 AM EST 4:40 PM EST
Civil Twilight 6:26 AM EST 5:10 PM EST
Nautical Twilight 5:52 AM EST 5:45 PM EST
Astronomical Twilight 5:18 AM EST 6:18 PM EST
Moon 3:38 PM EST (11/15) 4:48 AM EST (11/15)
Length of Visible Light 10h 44m
Length of Day
9h 42m
Waxing Gibbous, 96% of the Moon is Illuminated
Nov 15
Waxing Gibbous
Nov 17
Full
Nov 25
Last Quarter
Dec 2
New
Dec 9
First Quarter

Hourly Weather History & Observations

Time (EST) Temp. Windchill Dew Point Humidity Pressure Visibility Wind Dir Wind Speed Gust Speed Precip Events Conditions
12:54 AM 44.1 °F 39.5 °F 15.1 °F 31% 30.08 in 10.0 mi SSW 8.1 mph - N/A   Scattered Clouds
1:54 AM 44.1 °F 40.1 °F 16.0 °F 32% 30.09 in 10.0 mi SSW 6.9 mph - N/A   Overcast
2:54 AM 42.1 °F 36.6 °F 16.0 °F 35% 30.10 in 10.0 mi South 9.2 mph - N/A   Overcast
3:54 AM 42.1 °F 37.1 °F 16.0 °F 35% 30.10 in 10.0 mi South 8.1 mph - N/A   Mostly Cloudy
4:54 AM 42.1 °F 37.1 °F 16.0 °F 35% 30.11 in 10.0 mi South 8.1 mph - N/A   Mostly Cloudy
5:54 AM 39.9 °F 36.7 °F 16.0 °F 38% 30.11 in 10.0 mi SSE 4.6 mph - N/A   Scattered Clouds
6:54 AM 39.0 °F - 18.0 °F 43% 30.12 in 10.0 mi Calm Calm - N/A   Overcast
7:54 AM 42.1 °F 38.4 °F 19.9 °F 41% 30.14 in 10.0 mi SE 5.8 mph - N/A   Overcast
8:54 AM 46.9 °F - 19.9 °F 34% 30.14 in 10.0 mi South 5.8 mph - N/A   Overcast
9:54 AM 50.0 °F - 19.9 °F 31% 30.14 in 10.0 mi SSW 13.8 mph - N/A   Overcast
10:54 AM 51.1 °F - 21.0 °F 31% 30.13 in 10.0 mi South 11.5 mph - N/A   Overcast
11:54 AM 53.1 °F - 21.0 °F 29% 30.11 in 10.0 mi SSW 8.1 mph - N/A   Overcast
12:54 PM 54.0 °F - 21.0 °F 28% 30.09 in 10.0 mi WSW 6.9 mph - N/A   Overcast
1:54 PM 55.9 °F - 19.9 °F 25% 30.09 in 10.0 mi West 9.2 mph - N/A   Overcast
2:54 PM 55.9 °F - 21.9 °F 27% 30.07 in 10.0 mi NNW 3.5 mph - N/A   Overcast
3:54 PM 54.0 °F - 21.0 °F 28% 30.08 in 10.0 mi Calm Calm - N/A   Mostly Cloudy
4:54 PM 48.0 °F - 23.0 °F 37% 30.09 in 10.0 mi Calm Calm - N/A   Mostly Cloudy
5:54 PM 46.0 °F 44.8 °F 21.9 °F 39% 30.10 in 10.0 mi East 3.5 mph - N/A   Overcast
6:54 PM 45.0 °F 43.5 °F 24.1 °F 44% 30.09 in 10.0 mi ESE 3.5 mph - N/A   Overcast
7:54 PM 43.0 °F 40.3 °F 25.0 °F 49% 30.09 in 10.0 mi SE 4.6 mph - N/A   Mostly Cloudy
8:54 PM 46.0 °F 44.8 °F 21.9 °F 39% 30.12 in 10.0 mi SSW 3.5 mph - N/A   Overcast
9:54 PM 44.1 °F - 24.1 °F 45% 30.14 in 10.0 mi Calm Calm - N/A   Overcast
10:54 PM 43.0 °F - 25.0 °F 49% 30.14 in 10.0 mi Calm Calm - N/A   Overcast
11:54 PM 44.1 °F - 26.1 °F 49% 30.14 in 10.0 mi Calm Calm - N/A   Overcast